Upstream stations:
Downstream station:
SHEF ID: BXTK1 SPRING R NR BAXTER SPRINGS, KS
STATION TYPE:
PRECIP STAGE RIV-FLOW BAT-LOAD
in ft cfs volt
Ccp-Rev Ccp-Rev Ccp-Rev Ccp-Rev
(US/Central)
04/05 00:00 0.00 4.34 2381 12.77
04/05 01:00 0.00 4.35 2405 12.71
04/05 02:00 0.00 4.36 2429 12.71
04/05 03:00 0.00 4.37 2453 12.71
04/05 04:00 0.00 4.39 2501 12.65
04/05 05:00 0.00 4.40 2526 12.65
04/05 06:00 0.00 4.41 2550 12.65
04/05 07:00 0.00 4.43 2600 12.65
04/05 08:00 0.00 4.44 2625 12.65
04/05 09:00 0.00 4.45 2650 13.00
04/05 10:00 0.00 4.45 2650 13.53
04/05 11:00 0.00 4.47 2700 13.94
04/05 12:00 0.00 4.47 2700 14.53
04/05 13:00 0.01 4.48 2725 14.41
04/05 14:00 0.00 4.50 2776 14.30
04/05 15:00 0.00 4.50 2776 14.18
04/05 16:00 0.00 4.50 2776 14.12
04/05 17:00 0.00 4.52 2828 14.00
04/05 18:00 0.00 4.52 2828 13.77
04/05 19:00 0.00 4.52 2828 13.36
04/05 20:00 0.00 4.52 2828 12.89
04/05 21:00 0.00 4.51 2802 12.89
04/05 22:00 0.00 4.51 2802 12.89
04/05 23:00 ---- ---- ---- ----